{"data":{"norad_id":57531,"intl_designator":"2023-115L","name":"STARLINK-30268","alt_names":[],"object_type":"PAYLOAD","status":"ACTIVE","operator":null,"country":"US","launch_date":"2023-08-08","launch_site_code":"AFWTR","launch_vehicle":null,"mission":null,"orbit_class":"UNKNOWN","rcs_meters":null,"size_class":null,"mass_kg":null,"dimensions":null,"purposes":["comms"],"wikipedia_slug":null,"has_3d_model":false,"image_url":null,"decayed_at":null,"tle_current":{"epoch":"2026-09-20T12:28:50.298240Z","epoch_age_seconds":125954,"freshness":"FRESH","line1":"1 57531U 23115L   26263.52002660  .00000354  00000+0  22379-4 0  9991","line2":"2 57531  43.0033 341.6922 0001198 260.8261  99.2455 15.27576224172147","mean_motion":15.27576224,"eccentricity":0.0001198,"inclination_deg":43.0033,"raan_deg":341.6922,"arg_perigee_deg":260.8261,"mean_anomaly_deg":99.2455,"bstar":2.2379e-5,"rev_number":17214,"period_min":94.266981730661,"perigee_km":482.2384313165,"apogee_km":483.8823742142,"semimajor_km":6861.1974027654,"source":"CELESTRAK","updated_at":"2026-09-21T09:00:33.638888Z"}}}